User: anonymous   Login
Location: Unspecified
(47.6567°N, 0.0000°E)
Time: 04:43:41
(UTC+00:00)
Language:

N. Korean satellite - Orbit

View from above orbital plane
View from above orbital plane
View from above satellite
View from above satellite

Ground track
Ground track

The orbit data is extracted from the following two-line orbital elements,

1 39026U 12072A   19169.72933213  .00000942  00000-0  36549-4 0  9994
2 39026  97.2104 172.8765 0039930 100.6836 259.8904 15.27803953361605
Epoch (UTC): 18 June 2019 17:30:14
Eccentricity: 0.0039930
inclination: 97.2104°
perigee height: 455 km
apogee height: 510 km
right ascension of ascending node: 172.8765°
argument of perigee: 100.6836°
revolutions per day: 15.27803953
mean anomaly at epoch: 259.8904°
orbit number at epoch: 36160

The dashed part of the orbit path shows where the satellite is in the earth's shadow,  

DLR